Regional Weather Roundup
Issued by NWS

Home | Current Version | Previous Version | Graphics & Text | Print | Product List | Glossary On
Versions: 1 2 3 4 5 6 7 8 9 10 11 12 13 14 15 16 17 18 19 20 21 22 23 24 25 26 27 28 29 30 31 32 33 34 35 36 37 38 39 40 41 42 43 44 45 46 47 48 49 50
000
ASUS43 KDTX 251501
RWRMI
MICHIGAN HOURLY REGIONAL WEATHER ROUNDUP
NATIONAL WEATHER SERVICE DETROIT/PONTIAC MI
1000 AM EST TUE NOV 25 2014

NOTE: "FAIR" INDICATES FEW OR NO CLOUDS BELOW 12,000 FEET WITH NO
SIGNIFICANT WEATHER AND/OR OBSTRUCTION TO VISIBILITY.

MIZ047>049-052>055-059>063-066>070-074>076-081>083-251600-
SOUTHEAST LOWER MICHIGAN

CITY           SKY/WX    TMP DP  RH WIND       PRES   REMARKS
ADRIAN         CLOUDY    30  23  75 W15G26    29.98R WCI  19
ALMA           LGT SNOW  30  27  90 W9G16     29.90R WCI  21
ANN ARBOR      CLOUDY    30  22  72 W18       29.95R WCI  18
BAD AXE        CLOUDY    31  28  88 W18G24    29.84R WCI  19
CARO           CLOUDY    30  27  86 SW15G22   29.86R WCI  19
DETROIT CITY   CLOUDY    33  23  66 W15G26    29.94R WCI  23
DETROIT        CLOUDY    31  24  75 SW20G25   29.96R WCI  19
FLINT          CLOUDY    31  24  75 SW20G25   29.90R WCI  19
GROSSE ILE     CLOUDY    32  25  74 SW18G28   29.96R WCI  20
HILLSDALE      CLOUDY    29  24  84 W15G21    29.95R WCI  17
HOWELL         CLOUDY    29  23  79 SW16G26   29.92R WCI  17

CITY           SKY/WX    TMP DP  RH WIND       PRES   REMARKS
JACKSON        CLOUDY    28  22  78 W12G23    29.95R WCI  18
LAMBERTVILLE   CLOUDY    34  27  75 SW12G22   29.98R WCI  25
LANSING        LGTSLEET  29  23  78 SW17G26   29.93R WCI  17
LAPEER         CLOUDY    30  26  88 W12G21    29.89R WCI  20
MASON          CLOUDY    29  24  80 W12G17    29.93R WCI  20
MONROE         CLOUDY    32  27  80 SW14      29.96R WCI  22
MT. CLEMENS    CLOUDY    32  26  80 W13G22    29.90R WCI  22
PONTIAC        CLOUDY    30  21  69 W17G25    29.90R WCI  18
PORT HOPE        N/A     33  24  69 W15G24    29.80R WCI  23
PORT HURON     CLOUDY    30  27  86 SW8G20    29.91R WCI  23
TRI CITIES     CLOUDY    32  26  78 SW14      29.87R WCI  22
TROY           CLOUDY    32  25  76 SW9G23    29.94R WCI  24
SAGINAW HB     FLURRIES  32  30  93 SW14      29.87R WCI  22
$$
MIZ043>046-050>051-056>058-064>065-071>073-077>080-251600-
SOUTHWEST LOWER MICHIGAN

CITY           SKY/WX    TMP DP  RH WIND       PRES   REMARKS
BATTLE CREEK   CLOUDY    29  21  72 SW15      29.96R WCI  18
BENTON HARBOR  CLOUDY    27  22  81 W18       30.02R WCI  14
BIG RAPIDS     LGT SNOW  29  28  96 W7        29.87R WCI  22
COLDWATER      CLOUDY    29  25  82 W12       29.97R WCI  20
FREMONT        LGT SNOW  29  28  94 W8        29.91R WCI  21
HOLLAND        LGT SNOW  31  26  82 W15       29.96R WCI  20
GRAND RAPIDS   LGT SNOW  29  26  89 SW14      29.93R VSB 3/4 WCI  18
IONIA          LGT SNOW  30  28  92 SW17      29.91R WCI  18
KALAMAZOO      CLOUDY    28  22  78 SW12      29.98R WCI  18
LUDINGTON      LGT SNOW  29  27  90 NW7G17    29.91R WCI  22
MARSHALL       CLOUDY    27  21  76 SW14G22   29.95R WCI  16
MOUNT PLEASANT FLURRIES  30  26  83 W14       29.86R WCI  20
MUSKEGON       LGT SNOW  30  25  80 W14G23    29.94R WCI  20
SOUTH HAVEN    CLOUDY    30  24  80 W13G22    29.99R WCI  20
$$
MIZ016>042-251600-
NORTHERN LOWER MICHIGAN

CITY           SKY/WX    TMP DP  RH WIND       PRES   REMARKS
ALPENA         LGT SNOW  28  26  92 W8        29.75R FOG     WCI  20
BEAVER ISLAND  LGT SNOW  29  26  88 W8        29.80R WCI  21
BELLAIRE       SNOW      29  27  91 NW5       29.82R VSB 1/4 WCI  24
CADILLAC       LGT SNOW  27  24  87 W10       29.81R WCI  17
CHARLEVOIX     LGT SNOW  28  26  92 NW17      29.82R WCI  16
FRANKFORT      LGT SNOW  29  27  90 NW12G18   29.87R WCI  20
GAYLORD        LGT SNOW  26  22  84 W13G20    29.75R FOG     WCI  15
GRAYLING       LGT SNOW  28  27  94 W6        29.79R VSB 3/4 WCI  22
HARBOR SPRINGS LGT SNOW  28  24  88 W8        29.78R WCI  19
HOUGHTON LAKE  CLOUDY    28  23  81 W13G22    29.80R WCI  17
MANISTEE       CLOUDY    28  25  86 NW15      29.89R WCI  17
OSCODA         PTSUNNY   31  28  90 SW17      29.78R WCI  19
PELLSTON       LGT SNOW  26  24  92 NW12      29.77R VSB 1   WCI  16
ROGERS CITY    LGT SNOW  28  27  96 W8        29.75R WCI  19
TRAVERSE CITY  LGT SNOW  29  25  85 W12       29.83R FOG     WCI  19
$$
MIZ007>008-015-251600-
EASTERN UPPER MICHIGAN

CITY           SKY/WX    TMP DP  RH WIND       PRES   REMARKS
KINROSS        CLOUDY    23  21  93 N6        29.74R VSB 1   WCI  16
MACKINAC ISLAN LGT SNOW  26  25  95 NW15      29.75R WCI  14
NEWBERRY       LGT SNOW  24  23  94 NW3       29.77R VSB 3/4
S. S. MARIE    LGT SNOW  23  18  81 N6        29.72F VSB 3/4 WCI  16
MUNISING         N/A     30  22  72 N16       29.82R WCI  19
$$
MIZ004>006-011>014-085-251600-
CENTRAL UPPER MICHIGAN

CITY           SKY/WX    TMP DP  RH WIND       PRES   REMARKS
MANISTIQUE     LGT SNOW  26  24  89 NW9       29.81R WCI  17
ESCANABA       CLOUDY    25  18  74 W14       29.86R WCI  13
MENOMINEE      CLOUDY    25  18  74 NW6       29.91R WCI  18
SAWYER-GWINN   LGT SNOW  21  18  86 NW10G17   29.83R WCI  10
$$
MIZ001>003-009>011-084-251600-
WESTERN UPPER MICHIGAN

CITY           SKY/WX    TMP DP  RH WIND       PRES   REMARKS
IRON MOUNTAIN  LGT SNOW  21  14  74 NW12      29.87R WCI   9
HOUGHTON       LGT SNOW  20  14  77 NW12      29.86R WCI   8
COPPER HARBOR    N/A     25  18  74 N18       29.86R WCI  11
IRONWOOD       CLOUDY    16  12  86 W13       29.89R WCI   2
$$

ABBREVIATIONS USED IN REMARKS
   TC - TEMPERATURE IN CELSIUS
  WCI - WIND CHILL INDEX
   HX - HEAT INDEX
  VSB - VISIBILITY



USA.gov is the U.S. government's official web portal to all federal, state and local government web resources and services.